Retour au catalogue

PUNCH-NFI00

ActifScienceSSO
NORAD 63178·PAYLOAD·🇺🇸 United States

Lancé Mar 12, 2025 depuis Vandenberg Space Force Base

Loading…

Prochains Passages (prochaines 24 heures)

TLE

FraisSource: Space-Track

Époque: Sep 14, 2026, 10:20 UTC

1 63178U 25047A   26257.43073319  .00000348  00000-0  59477-4 0  9996
2 63178  97.9584  81.3598 0009983 227.2421 132.7949 14.74844722 81234

Suivez PUNCH-NFI00 en temps réel avec AllMySat

Download on the App Store